When you browse on this site, cookies collect data to enhance your experience and personalize the content and advertising you see.
Visit our Privacy Policy to learn more. By continuing to use the site, you agree to this use of cookies and data.
  • In Spain
  • List of Countries
  • For 7 days
  • Water Temperature
  • Weather Map
  • Weather Widgets
  • user-avatar
    Login

    Hourly Weather Mostoles

    Today, 29 May, Friday

    Time Temperature Precipitation Wind Pressure Humidity
    00:00 +19°C° 0 mm 2 mps 705 mmHg 52%
    01:00 +19°C° 0 mm 2 mps 705 mmHg 53%
    02:00 +18°C° 0 mm 2 mps 705 mmHg 55%
    03:00 +18°C° 0 mm 2 mps 705 mmHg 57%
    04:00 +18°C° 0 mm 2 mps 705 mmHg 56%
    05:00 +18°C° 0 mm 2 mps 705 mmHg 56%
    06:00 +18°C° 0 mm 2 mps 705 mmHg 56%
    07:00 +20°C° 0 mm 2 mps 705 mmHg 49%
    08:00 +21°C° 0 mm 2 mps 705 mmHg 42%
    09:00 +24°C° 0 mm 2 mps 705 mmHg 36%
    10:00 +25°C° 0 mm 2 mps 705 mmHg 33%
    11:00 +27°C° 0 mm 2 mps 704 mmHg 30%
    12:00 +28°C° 0 mm 2 mps 704 mmHg 27%
    13:00 +29°C° 0 mm 1 mps 704 mmHg 26%
    14:00 +30°C° 0 mm 1 mps 703 mmHg 24%
    15:00 +30°C° 0 mm 1 mps 703 mmHg 23%
    16:00 +30°C° 0 mm 1 mps 703 mmHg 23%
    17:00 +30°C° 0 mm 1 mps 702 mmHg 24%
    18:00 +30°C° 0 mm 1 mps 702 mmHg 25%
    19:00 +28°C° 0 mm 1 mps 702 mmHg 28%
    20:00 +27°C° 0 mm 1 mps 702 mmHg 31%
    21:00 +25°C° 0 mm 1 mps 703 mmHg 34%
    22:00 +25°C° 0 mm 1 mps 702 mmHg 36%
    23:00 +24°C° 0 mm 1 mps 702 mmHg 38%

    Tomorrow, 30 May, Saturday

    Time Temperature Precipitation Wind Pressure Humidity
    00:00 +23°C° 0 mm 2 mps 702 mmHg 40%
    01:00 +23°C° 0 mm 2 mps 702 mmHg 42%
    02:00 +21°C° 0 mm 2 mps 702 mmHg 44%
    03:00 +20°C° 0 mm 3 mps 702 mmHg 46%
    04:00 +20°C° 0 mm 3 mps 702 mmHg 47%
    05:00 +19°C° 0 mm 3 mps 702 mmHg 48%
    06:00 +19°C° 0 mm 3 mps 702 mmHg 50%
    07:00 +21°C° 0 mm 3 mps 702 mmHg 45%
    08:00 +22°C° 0 mm 3 mps 702 mmHg 40%
    09:00 +25°C° 0 mm 3 mps 703 mmHg 36%
    10:00 +26°C° 0 mm 2 mps 702 mmHg 33%
    11:00 +28°C° 0 mm 2 mps 702 mmHg 30%
    12:00 +29°C° 0 mm 1 mps 702 mmHg 27%
    13:00 +30°C° 0 mm 1 mps 702 mmHg 25%
    14:00 +31°C° 0 mm 1 mps 702 mmHg 23%
    15:00 +31°C° 0 mm 2 mps 701 mmHg 21%
    16:00 +31°C° 0 mm 1 mps 701 mmHg 21%
    17:00 +31°C° 0 mm 1 mps 701 mmHg 21%
    18:00 +31°C° 0 mm 1 mps 700 mmHg 22%
    19:00 +29°C° 0 mm 1 mps 701 mmHg 25%
    20:00 +28°C° 0 mm 2 mps 701 mmHg 27%
    21:00 +26°C° 0 mm 2 mps 701 mmHg 30%
    22:00 +25°C° 0 mm 2 mps 701 mmHg 33%
    23:00 +24°C° 0 mm 2 mps 701 mmHg 36%

    Day after tomorrow, 31 May, Sunday

    Time Temperature Precipitation Wind Pressure Humidity
    00:00 +22°C° 0 mm 3 mps 701 mmHg 38%
    01:00 +21°C° 0 mm 3 mps 701 mmHg 40%
    02:00 +21°C° 0 mm 3 mps 701 mmHg 41%
    03:00 +20°C° 0 mm 4 mps 701 mmHg 42%
    04:00 +20°C° 0 mm 4 mps 701 mmHg 43%
    05:00 +20°C° 0 mm 4 mps 700 mmHg 44%
    06:00 +20°C° 0 mm 4 mps 700 mmHg 45%
    07:00 +21°C° 0 mm 4 mps 701 mmHg 42%
    08:00 +22°C° 0 mm 4 mps 701 mmHg 39%
    09:00 +25°C° 0 mm 4 mps 701 mmHg 35%
    10:00 +26°C° 0 mm 3 mps 701 mmHg 32%
    11:00 +28°C° 0 mm 3 mps 701 mmHg 29%
    12:00 +29°C° 0 mm 3 mps 701 mmHg 26%
    13:00 +30°C° 0 mm 3 mps 701 mmHg 24%
    14:00 +31°C° 0 mm 3 mps 701 mmHg 22%
    15:00 +31°C° 0 mm 3 mps 701 mmHg 20%
    16:00 +29°C° 0 mm 5 mps 701 mmHg 28%
    17:00 +27°C° 0 mm 6 mps 700 mmHg 35%
    18:00 +24°C° 0 mm 8 mps 700 mmHg 42%
    19:00 +24°C° 0 mm 6 mps 700 mmHg 44%
    20:00 +24°C° 0 mm 3 mps 701 mmHg 46%
    21:00 +24°C° 0 mm 1 mps 702 mmHg 48%
    22:00 +23°C° 0 mm 1 mps 702 mmHg 50%
    23:00 +23°C° 0 mm 1 mps 702 mmHg 51%

    1 June, Monday

    Time Temperature Precipitation Wind Pressure Humidity
    00:00 +22°C° 0 mm 1 mps 702 mmHg 53%
    01:00 +22°C° 0 mm 1 mps 702 mmHg 55%
    02:00 +21°C° 0 mm 1 mps 702 mmHg 56%
    03:00 +21°C° 0 mm 1 mps 701 mmHg 58%
    04:00 +21°C° 0 mm 1 mps 702 mmHg 58%
    05:00 +21°C° 0 mm 1 mps 702 mmHg 57%
    06:00 +21°C° 0 mm 1 mps 702 mmHg 57%
    07:00 +23°C° 0 mm 1 mps 702 mmHg 52%
    08:00 +24°C° 0 mm 1 mps 703 mmHg 46%
    09:00 +26°C° 0 mm 1 mps 703 mmHg 40%
    10:00 +27°C° 0 mm 2 mps 703 mmHg 37%
    11:00 +28°C° 0 mm 2 mps 703 mmHg 33%
    12:00 +29°C° 0 mm 3 mps 703 mmHg 30%
    13:00 +30°C° 0 mm 3 mps 703 mmHg 28%
    14:00 +30°C° 0 mm 3 mps 703 mmHg 27%
    15:00 +31°C° 0 mm 3 mps 703 mmHg 25%
    16:00 +31°C° 0 mm 3 mps 702 mmHg 26%
    17:00 +30°C° 0 mm 3 mps 702 mmHg 27%
    18:00 +30°C° 0 mm 3 mps 702 mmHg 27%
    19:00 +29°C° 0 mm 2 mps 703 mmHg 30%
    20:00 +27°C° 0 mm 2 mps 703 mmHg 33%
    21:00 +26°C° 0 mm 2 mps 703 mmHg 36%
    22:00 +25°C° 0 mm 1 mps 703 mmHg 39%
    23:00 +24°C° 0 mm 1 mps 703 mmHg 43%

    2 June, Tuesday

    Time Temperature Precipitation Wind Pressure Humidity
    00:00 +24°C° 0 mm 1 mps 703 mmHg 46%
    01:00 +23°C° 0 mm 1 mps 703 mmHg 48%
    02:00 +22°C° 0 mm 1 mps 702 mmHg 51%
    03:00 +22°C° 0 mm 1 mps 702 mmHg 53%
    04:00 +22°C° 0 mm 1 mps 702 mmHg 54%
    05:00 +22°C° 0 mm 1 mps 703 mmHg 55%
    06:00 +22°C° 0 mm 1 mps 703 mmHg 56%
    07:00 +24°C° 0 mm 1 mps 703 mmHg 51%
    08:00 +25°C° 0 mm 1 mps 703 mmHg 46%
    09:00 +27°C° 0 mm 2 mps 703 mmHg 41%
    10:00 +28°C° 0 mm 2 mps 703 mmHg 36%
    11:00 +29°C° 0 mm 3 mps 703 mmHg 31%
    12:00 +30°C° 0 mm 3 mps 703 mmHg 27%
    13:00 +30°C° 0 mm 3 mps 702 mmHg 25%
    14:00 +31°C° 0 mm 3 mps 702 mmHg 24%
    15:00 +31°C° 0 mm 3 mps 701 mmHg 23%
    16:00 +31°C° 0 mm 3 mps 701 mmHg 23%
    17:00 +31°C° 0 mm 3 mps 701 mmHg 23%
    18:00 +32°C° 0 mm 4 mps 700 mmHg 23%
    19:00 +29°C° 0 mm 3 mps 700 mmHg 26%
    20:00 +28°C° 0 mm 2 mps 701 mmHg 29%
    21:00 +26°C° 0 mm 2 mps 701 mmHg 33%
    22:00 +26°C° 0 mm 2 mps 701 mmHg 34%
    23:00 +25°C° 0 mm 2 mps 700 mmHg 35%

    3 June, Wednesday

    Time Temperature Precipitation Wind Pressure Humidity
    00:00 +24°C° 0 mm 2 mps 700 mmHg 36%
    01:00 +23°C° 0 mm 2 mps 700 mmHg 38%
    02:00 +23°C° 0 mm 2 mps 700 mmHg 40%
    03:00 +21°C° 0 mm 2 mps 699 mmHg 42%
    04:00 +21°C° 0 mm 2 mps 699 mmHg 44%
    05:00 +20°C° 0 mm 2 mps 699 mmHg 45%
    06:00 +20°C° 0 mm 2 mps 699 mmHg 47%
    07:00 +22°C° 0 mm 3 mps 699 mmHg 42%
    08:00 +25°C° 0 mm 4 mps 699 mmHg 36%
    09:00 +27°C° 0 mm 5 mps 700 mmHg 31%
    10:00 +28°C° 0 mm 5 mps 699 mmHg 27%
    11:00 +29°C° 0 mm 6 mps 699 mmHg 24%
    12:00 +30°C° 0 mm 7 mps 699 mmHg 20%
    13:00 +30°C° 0 mm 6 mps 699 mmHg 20%
    14:00 +30°C° 0 mm 6 mps 698 mmHg 20%
    15:00 +32°C° 0 mm 6 mps 698 mmHg 20%
    16:00 +30°C° 0 mm 6 mps 698 mmHg 23%
    17:00 +30°C° 0 mm 6 mps 697 mmHg 25%
    18:00 +29°C° 0 mm 6 mps 697 mmHg 27%
    19:00 +28°C° 0 mm 5 mps 698 mmHg 33%
    20:00 +26°C° 0 mm 5 mps 698 mmHg 38%
    21:00 +23°C° 0 mm 4 mps 698 mmHg 43%
    22:00 +23°C° 0 mm 4 mps 698 mmHg 48%
    23:00 +22°C° 0 mm 4 mps 698 mmHg 52%
    Show more